Santa Fe, NM

4:30 PM MDT on September 28, 2016 (GMT -0600)
Santa Fe Municipal

Weather History for KSAF - February, 2013

Change the Weather History Date:

Tuesday, February 26, 2013

  Actual Average Record
Temperature  
Mean Temperature 27 °F -  
Max Temperature 42 °F 0 °F 63 °F (2009)
Min Temperature 12 °F - 10 °F (2002)
Degree Days  
Heating Degree Days 38    
Moisture  
Dew Point 2 °F    
Average Humidity 39    
Maximum Humidity 81    
Minimum Humidity 14    
Precipitation  
Precipitation 0.00 in - - ()
Sea Level Pressure  
Sea Level Pressure 29.88 in    
Wind  
Wind Speed 9 mph (WNW)    
Max Wind Speed 28 mph    
Max Gust Speed 38 mph    
Visibility 10 miles    
Events      
Averages and records for this station are not official NWS values.
T = Trace of Precipitation, MM = Missing Value Source: NWS Daily Summary

Daily Weather History Graph

Daily Weather History Graph

Search for Another Location

Airport or City:

Trip Planner

Search our weather history database for the weather conditions in past years. The results will help you decide how hot, cold, wet, or windy it might be!

Date:

Astronomy

Feb. 26, 2013 Rise Set
Actual Time 6:37 AM MST 5:57 PM MST
Civil Twilight 6:12 AM MST 6:22 PM MST
Nautical Twilight 5:42 AM MST 6:52 PM MST
Astronomical Twilight 5:12 AM MST 7:22 PM MST
Moon 7:12 PM MST (2/26) 6:45 AM MST (2/26)
Length of Visible Light 12h 10m
Length of Day
11h 19m
Full, 99% of the Moon is Illuminated
Feb 26
Full
Mar 4
Last Quarter
Mar 11
New
Mar 19
First Quarter
Mar 27
Full

Hourly Weather History & Observations

Time (MST) Temp. Windchill Dew Point Humidity Pressure Visibility Wind Dir Wind Speed Gust Speed Precip Events Conditions
12:53 AM 23.0 °F 14.7 °F 8.1 °F 53% 29.88 in 10.0 mi West 6.9 mph - N/A   Clear
1:53 AM 24.1 °F - 7.0 °F 48% 29.86 in 10.0 mi Calm Calm - N/A   Clear
2:53 AM 17.1 °F 11.7 °F 8.1 °F 68% 29.86 in 10.0 mi WSW 3.5 mph - N/A   Clear
3:53 AM 19.9 °F 12.1 °F 7.0 °F 57% 29.84 in 10.0 mi WSW 5.8 mph - N/A   Clear
4:53 AM 19.9 °F - 8.1 °F 60% 29.83 in 10.0 mi Calm Calm - N/A   Clear
5:53 AM 12.9 °F - 8.1 °F 81% 29.88 in 10.0 mi Calm Calm - N/A   Clear
6:53 AM 14.0 °F - 6.1 °F 71% 29.88 in 10.0 mi Calm Calm - N/A   Clear
7:53 AM 26.1 °F - 10.0 °F 51% 29.87 in 10.0 mi Calm Calm - N/A   Clear
8:53 AM 30.9 °F 26.2 °F 10.9 °F 43% 29.86 in 10.0 mi Variable 4.6 mph - N/A   Clear
9:53 AM 36.0 °F 26.7 °F 10.0 °F 34% 29.80 in 10.0 mi WSW 15.0 mph 23.0 mph N/A   Clear
10:53 AM 41.0 °F 31.6 °F 7.0 °F 25% 29.77 in 10.0 mi WSW 20.7 mph 27.6 mph N/A   Clear
11:53 AM 42.1 °F 31.9 °F 3.0 °F 20% 29.75 in 10.0 mi West 26.5 mph 36.8 mph N/A   Clear
12:53 PM 37.9 °F 26.3 °F -2.0 °F 18% 29.77 in 10.0 mi WNW 26.5 mph 38.0 mph N/A   Partly Cloudy
1:53 PM 39.9 °F 29.2 °F -6.0 °F 14% 29.76 in 10.0 mi WNW 25.3 mph 35.7 mph N/A   Partly Cloudy
2:53 PM 39.0 °F 27.6 °F -5.1 °F 15% 29.82 in 10.0 mi WNW 27.6 mph 35.7 mph N/A   Clear
3:53 PM 37.9 °F 26.3 °F -7.1 °F 15% 29.83 in 10.0 mi West 26.5 mph 36.8 mph N/A   Partly Cloudy
4:53 PM 35.1 °F 22.7 °F -9.0 °F 15% 29.86 in 10.0 mi WNW 25.3 mph 36.8 mph N/A   Clear
5:53 PM 30.9 °F 19.1 °F -7.1 °F 19% 29.95 in 10.0 mi WNW 18.4 mph 38.0 mph N/A   Clear
6:53 PM 26.1 °F 18.4 °F -4.0 °F 27% 30.01 in 10.0 mi WNW 6.9 mph - N/A   Clear
7:53 PM 26.1 °F 17.6 °F -0.9 °F 31% 29.98 in 10.0 mi NNW 8.1 mph - N/A   Clear
8:53 PM 21.9 °F 15.7 °F -0.9 °F 37% 29.99 in 10.0 mi NNW 4.6 mph - N/A   Clear
9:53 PM 23.0 °F 18.4 °F -0.0 °F 37% 30.00 in 10.0 mi West 3.5 mph - N/A   Clear
10:53 PM 19.9 °F 11.1 °F 1.9 °F 46% 30.01 in 10.0 mi North 6.9 mph - N/A   Clear
11:53 PM 18.0 °F 9.8 °F 5.0 °F 57% 30.04 in 10.0 mi NNW 5.8 mph - N/A   Clear